Theta_e
315 315 315 316 317 318 317 317 317 318 319 320 320 320 321 321 322 322 322 323 323 324 324 324 324 324 325 326 327 326 324 315 309 312 314 312 323 335 336 340 339 339 336 313 304 303 301 298 300 300 300 299 302 300 302 304 300 294 289 283 287 288 289 291 290 290 291 294 293 294 294 294 294 297 299 299 297 295 295 295 295 297 296 298 299 298 300 301
314 315 316 315 316 317 317 317 317 317 318 319 320 320 320 321 321 321 322 323 323 323 323 324 324 325 325 325 327 326 318 315 311 307 307 324 334 338 339 337 336 337 324 305 304 300 300 300 299 297 298 298 302 300 303 301 300 292 288 285 288 287 293 294 294 293 293 293 293 294 294 295 295 296 299 296 294 295 295 294 294 294 297 297 298 298 299 300
315 314 314 315 315 315 315 317 317 317 318 318 319 319 320 320 321 321 322 322 323 323 323 324 324 324 325 325 325 325 318 315 310 306 307 333 335 337 336 336 335 333 310 308 306 306 303 302 300 299 296 298 295 301 298 299 300 295 288 287 288 290 295 294 295 296 295 294 294 295 296 295 297 298 298 297 293 295 293 293 294 294 295 296 298 299 299 300
314 314 314 315 315 315 315 316 317 317 317 318 318 319 319 320 320 321 322 322 322 323 323 324 324 324 324 325 326 318 314 307 306 307 315 330 334 336 335 335 334 324 313 313 309 308 303 302 298 300 298 293 294 295 297 299 294 295 289 286 293 293 293 298 296 296 295 295 294 295 295 296 297 296 298 294 294 293 293 294 296 295 295 296 296 297 298 299
313 314 314 315 315 316 316 316 316 317 317 317 318 319 319 320 321 321 322 322 322 323 323 324 324 324 324 325 324 314 305 299 304 310 317 331 334 335 335 335 332 315 309 307 306 303 301 300 300 297 296 295 295 292 295 296 296 291 293 291 292 292 295 296 296 297 295 294 294 293 295 296 298 297 295 294 292 290 296 297 296 296 297 297 297 297 297 298
313 314 314 314 314 314 315 315 315 316 317 317 317 318 319 320 321 321 321 321 322 322 323 324 324 324 325 324 313 315 303 291 303 310 328 329 332 333 335 334 333 314 310 304 303 301 301 300 296 295 292 293 293 293 295 296 299 293 294 293 292 293 295 296 296 296 295 295 293 293 296 296 296 296 294 294 295 292 294 295 296 296 298 297 297 296 297 297
313 314 314 315 314 314 314 314 315 315 316 317 317 318 319 320 320 321 321 321 322 322 323 323 324 324 324 321 310 309 303 303 310 311 325 330 331 334 333 328 323 308 304 303 301 302 299 296 296 298 291 292 293 293 296 295 294 292 293 294 296 294 297 295 298 293 291 294 294 294 295 296 294 295 295 295 294 294 294 295 296 297 297 297 296 296 297 297
315 315 314 315 314 313 313 314 314 315 315 316 317 318 319 320 320 320 321 321 322 322 323 323 324 324 323 311 309 300 304 303 311 318 325 330 323 316 317 311 307 306 304 303 302 301 299 297 296 295 292 292 296 295 296 296 294 293 295 295 296 295 296 295 294 293 293 295 295 295 295 295 293 294 294 294 293 295 295 295 296 296 296 296 296 295 295 295
315 316 316 316 315 314 314 314 314 314 315 316 316 318 319 320 320 321 321 321 321 322 322 324 324 324 323 311 304 298 299 311 316 319 320 312 309 307 307 310 305 306 304 301 301 303 302 298 298 298 295 294 296 297 294 295 291 295 296 295 295 296 296 294 294 293 294 295 294 295 293 292 292 294 295 295 294 294 294 295 295 296 295 295 295 295 295 296
315 315 315 315 315 315 315 314 314 314 315 315 316 318 318 320 321 321 321 321 321 322 322 323 324 323 314 307 297 295 303 313 317 319 314 310 309 310 306 307 307 305 306 303 303 301 301 300 301 302 297 296 297 295 295 294 293 295 294 295 296 296 295 295 296 295 293 297 293 294 293 294 293 295 292 294 294 293 294 294 293 295 295 295 295 295 295 296
316 316 315 315 315 315 315 314 314 314 315 315 316 317 318 319 320 321 321 321 321 322 323 323 324 317 309 302 301 294 311 317 315 310 312 310 311 308 308 307 307 305 304 304 305 306 304 302 302 300 300 297 297 295 295 297 296 295 295 296 294 292 293 294 295 294 294 297 292 295 293 292 293 294 293 293 293 294 294 293 292 293 293 294 294 294 294 295
316 316 315 315 316 316 315 315 314 315 315 315 316 316 317 318 319 320 320 321 321 322 323 323 323 314 309 299 295 298 313 313 312 310 311 313 311 310 309 307 306 308 307 306 306 307 305 306 302 301 296 301 294 296 297 296 297 296 296 295 292 291 295 294 294 293 294 295 293 294 294 291 292 292 291 293 294 293 293 292 292 292 292 292 293 293 293 295
318 316 316 316 315 315 315 315 315 315 315 315 315 316 317 318 318 319 320 321 321 322 323 323 321 312 305 299 301 307 308 311 311 310 311 309 308 308 309 309 308 306 308 306 305 307 305 303 300 300 301 296 295 294 297 297 296 296 294 293 292 289 289 293 294 293 294 295 292 295 287 287 290 295 292 293 293 292 292 291 292 291 291 291 292 293 293 293
318 318 318 318 317 315 316 316 317 316 315 315 315 316 316 317 318 319 320 320 322 323 323 324 314 309 305 299 307 309 312 315 310 310 310 310 307 308 308 307 306 305 308 306 307 305 306 302 300 300 300 297 297 301 296 294 294 294 293 289 288 286 286 292 293 292 295 294 292 295 287 287 290 291 290 292 293 293 292 292 292 291 291 291 292 292 293 293
318 318 318 318 318 315 315 318 317 316 316 316 315 315 316 316 318 319 320 321 323 323 324 321 309 309 300 302 311 314 326 314 310 307 309 310 307 306 306 306 306 303 304 304 306 305 303 303 302 298 298 298 300 297 290 289 289 291 289 285 284 287 284 291 293 293 294 294 293 294 286 290 293 294 291 292 292 292 292 292 292 291 291 291 291 292 293 293
318 318 318 318 317 316 316 318 317 316 317 317 315 315 316 317 318 320 322 322 324 324 313 314 310 301 296 296 309 321 312 307 307 308 307 311 307 306 305 304 306 303 304 304 304 303 302 300 298 296 296 298 292 287 287 288 288 285 289 282 286 286 285 290 294 292 293 292 293 293 289 288 291 290 291 291 292 291 291 291 291 292 292 292 292 292 292 293
319 318 318 318 317 316 316 317 317 317 317 317 316 316 318 318 319 321 322 323 319 317 311 308 305 304 296 302 311 306 304 307 310 310 309 309 311 305 305 304 302 303 302 303 302 303 301 299 297 298 293 292 289 287 286 280 281 284 285 286 284 287 286 287 290 293 292 293 290 292 289 290 291 290 291 291 292 290 291 292 292 292 292 292 292 292 292 292
319 319 318 318 317 316 316 317 318 318 318 317 317 317 316 319 322 321 317 317 313 309 311 315 308 296 294 302 297 300 306 307 308 309 308 308 306 303 301 302 299 299 299 300 300 299 299 297 294 292 291 291 292 286 283 281 285 283 287 286 287 287 287 289 290 293 292 292 290 289 289 291 293 293 290 292 291 291 292 293 293 292 292 292 292 292 292 292
319 319 319 318 317 316 317 318 318 318 318 317 317 319 321 321 316 312 311 309 304 296 293 295 294 286 286 294 302 307 309 309 309 308 306 307 308 305 303 301 300 300 296 295 296 298 295 293 293 290 289 288 290 291 289 288 287 288 287 285 284 288 287 288 289 290 294 290 289 289 289 292 293 293 293 290 292 291 293 292 291 291 292 292 292 292 292 292
319 319 319 318 318 317 317 318 318 318 318 313 314 312 303 303 296 299 304 306 301 293 294 295 298 298 301 301 304 307 310 307 305 306 307 308 306 304 302 301 299 296 295 294 295 296 293 289 287 287 290 292 292 293 293 291 290 289 288 287 287 287 287 289 291 291 291 291 289 290 291 291 292 292 293 292 290 290 291 291 292 292 292 292 292 292 293 292
320 320 319 319 318 317 317 318 318 318 318 313 313 308 293 298 287 286 294 301 303 303 301 300 301 298 301 304 304 305 304 303 304 304 306 309 303 303 299 298 294 293 292 292 294 296 294 289 288 291 293 293 293 293 292 291 291 291 290 287 287 286 287 288 293 293 291 291 286 287 288 289 291 293 293 292 289 291 292 292 292 293 292 293 292 292 292 292
320 320 320 319 318 317 318 318 319 318 319 313 311 307 309 305 303 304 300 294 298 305 304 302 302 302 303 304 305 305 301 299 302 303 306 306 302 299 297 294 291 293 292 293 292 291 289 288 292 294 293 292 293 292 291 291 291 289 289 287 286 287 287 290 291 291 292 291 289 288 288 291 292 293 294 293 292 293 294 294 295 294 293 293 293 293 292 290
320 320 319 319 318 318 318 319 318 318 310 309 307 308 308 310 308 306 305 297 296 300 303 302 301 302 301 303 306 305 301 296 297 300 303 305 299 297 296 293 292 290 292 293 292 285 286 287 293 295 293 293 292 291 290 290 290 289 287 286 286 285 289 286 288 289 293 291 286 286 287 290 292 292 294 295 295 294 295 294 295 294 294 293 293 293 292 291
319 319 319 319 318 318 319 319 320 314 308 307 307 308 310 308 309 310 302 294 291 295 302 303 303 300 301 302 305 304 300 298 299 300 304 301 299 296 296 294 292 291 291 292 292 291 289 292 294 294 293 293 292 291 289 288 287 286 288 286 286 287 287 289 288 290 288 289 289 290 289 291 292 293 294 296 292 294 296 294 292 293 294 295 294 293 294 293
319 319 319 319 318 319 319 319 313 310 309 308 307 311 312 311 308 308 298 289 287 292 301 303 304 302 302 306 305 304 299 299 299 302 305 303 297 296 295 296 291 290 292 292 291 290 290 294 293 292 291 292 292 290 290 290 286 287 287 291 290 288 289 288 288 290 283 285 286 289 282 281 282 288 291 294 289 292 292 293 295 295 293 292 292 293 293 292
319 319 319 318 318 318 319 310 309 310 307 304 305 307 311 310 309 308 292 284 282 286 296 292 305 299 308 300 304 300 300 297 298 303 306 303 306 299 297 295 295 291 291 291 291 289 292 293 295 293 291 290 290 290 289 291 289 285 288 289 291 290 289 289 288 288 281 282 288 288 284 282 285 290 290 290 289 294 295 292 295 295 295 292 293 293 292 292
319 319 318 318 318 318 309 302 309 308 302 303 308 310 307 308 308 307 290 280 279 291 291 297 297 296 307 301 303 297 288 289 302 303 303 305 303 302 295 292 294 293 294 293 290 288 292 292 293 293 291 289 288 288 290 292 289 284 286 288 289 289 288 287 287 288 284 282 286 286 283 282 286 288 293 295 293 295 295 296 297 297 295 293 293 292 292 292
319 319 318 319 318 316 308 309 308 304 303 305 306 310 310 308 306 305 286 275 275 295 292 293 298 305 304 302 302 298 293 298 296 299 300 302 302 300 296 291 294 293 293 293 286 289 292 290 290 291 290 290 290 290 291 293 290 286 289 289 288 290 287 286 287 283 285 284 283 282 285 284 282 285 288 290 290 292 293 295 296 297 296 294 293 292 292 292
319 318 317 318 318 317 314 309 308 305 309 306 307 311 312 307 303 288 280 274 289 292 305 297 308 302 297 300 298 296 295 295 292 297 299 301 302 298 294 293 293 294 294 294 291 289 293 292 293 295 293 290 290 289 291 294 290 291 289 290 288 287 286 284 282 287 281 281 282 283 285 283 286 287 290 288 290 291 293 295 296 296 296 294 292 291 291 291
319 318 318 318 317 315 312 310 308 309 308 307 309 310 309 303 293 285 278 272 294 287 296 298 298 294 297 295 294 296 295 294 294 298 299 297 299 299 299 296 294 293 293 290 290 289 294 293 293 294 292 293 290 290 289 292 292 292 290 290 287 284 282 280 280 279 281 278 285 286 286 287 283 284 289 289 290 292 294 293 293 293 292 291 291 291 291 290
319 318 317 317 312 313 312 306 310 313 310 310 310 310 305 294 283 280 273 282 290 291 294 293 292 297 294 293 291 292 292 293 296 296 294 297 296 295 296 295 295 289 286 286 287 285 290 291 293 291 292 291 292 291 291 291 292 293 286 283 285 285 280 277 275 278 277 278 282 284 286 287 281 280 285 291 290 289 292 293 294 294 292 291 290 290 290 290
318 318 318 316 316 316 308 305 312 314 312 310 311 307 299 284 286 278 278 289 283 286 291 288 291 293 294 296 294 293 293 292 294 295 294 292 292 293 294 291 291 285 284 286 285 286 287 288 288 292 293 293 290 291 290 288 290 290 288 288 282 275 276 275 273 275 274 279 280 280 284 282 284 290 288 291 293 293 291 293 293 292 292 289 289 290 290 290
318 317 317 317 315 313 313 313 313 313 313 311 308 303 292 283 277 285 283 285 281 291 289 293 292 294 294 292 291 292 292 291 292 293 294 292 293 293 293 293 293 288 282 284 286 285 285 283 289 290 293 293 295 291 286 286 289 288 289 285 281 276 274 271 270 269 273 277 280 282 284 283 283 287 294 296 298 298 296 292 291 291 293 294 291 290 289 289
317 317 315 315 316 315 315 312 312 313 311 309 304 297 290 281 280 293 287 287 288 291 292 290 293 292 294 291 291 294 289 291 292 292 293 291 291 289 291 293 292 291 287 284 286 286 280 281 287 291 289 293 296 296 294 290 289 291 287 290 286 280 273 273 272 275 277 275 278 279 280 278 279 286 288 293 294 289 285 286 287 288 289 288 288 288 287 287
317 317 317 315 314 316 314 313 312 314 311 306 298 290 282 281 287 285 286 288 288 291 290 293 292 291 289 288 288 294 292 288 291 291 289 290 288 288 289 292 293 292 288 287 285 282 286 285 285 295 292 294 294 295 292 289 289 286 285 287 283 285 283 282 277 274 273 274 274 276 281 281 286 287 289 286 285 286 285 286 287 287 286 286 286 288 288 288
314 314 316 312 312 314 315 313 314 314 310 301 292 286 283 286 284 290 288 293 292 290 290 292 287 286 285 286 288 292 294 290 291 290 287 288 289 290 292 292 294 295 291 288 287 283 284 283 288 291 291 294 294 292 292 293 285 285 288 285 288 287 289 283 277 278 278 274 280 275 281 283 285 292 294 294 289 287 286 287 287 287 285 285 287 287 287 288
310 314 309 312 312 315 315 314 314 312 307 297 290 284 289 290 294 293 294 290 292 294 291 288 287 287 285 286 287 289 291 291 289 289 287 289 289 291 290 292 295 295 297 293 287 290 285 283 288 288 288 290 287 290 290 290 290 287 283 287 289 289 286 283 278 272 272 275 277 279 282 282 281 284 283 286 288 291 290 290 286 285 284 285 287 287 287 288
310 310 310 310 313 315 315 314 313 311 304 295 287 290 293 289 296 294 294 294 294 295 289 289 285 291 285 287 286 289 290 290 288 288 286 290 287 296 293 291 295 296 298 295 291 290 291 284 286 287 287 289 290 292 291 291 290 289 285 289 290 282 281 281 277 274 271 273 274 276 280 282 285 286 286 287 287 290 292 291 286 288 287 287 288 287 286 286
309 307 302 310 316 316 315 315 312 306 299 289 287 287 292 292 298 296 296 293 295 294 290 290 287 289 290 287 286 288 291 287 289 287 287 287 287 292 294 296 292 297 298 297 292 289 291 286 284 287 287 288 288 289 284 286 291 289 290 289 286 283 278 279 282 276 277 274 270 278 278 282 285 286 288 291 289 291 291 288 288 290 290 290 289 288 287 286
305 301 300 313 315 316 315 313 306 302 295 285 288 289 295 292 295 298 297 298 294 293 290 289 288 287 290 289 291 288 289 289 289 288 289 288 290 292 293 297 293 293 296 298 295 295 289 289 280 284 285 287 285 286 286 289 286 285 285 284 287 284 286 282 281 280 278 272 271 276 279 279 283 289 289 293 292 292 291 291 291 291 291 290 290 288 288 287
308 300 302 313 315 315 313 307 300 295 291 291 293 291 293 292 294 296 298 299 297 299 294 292 291 290 291 289 289 292 290 288 288 287 288 287 290 286 293 295 295 293 295 295 295 293 289 287 284 283 283 283 285 287 291 292 292 290 290 287 290 285 282 279 280 281 277 279 278 271 281 281 286 288 293 292 293 292 291 291 292 291 292 291 289 288 288 288
301 293 299 313 314 313 306 296 296 299 293 287 287 292 291 299 294 295 296 297 296 295 297 293 293 292 292 292 292 291 290 288 288 288 287 288 292 290 291 298 298 297 295 290 292 297 294 287 285 282 284 287 286 288 288 289 290 289 289 286 290 289 286 281 279 280 278 282 279 275 273 285 290 289 291 291 291 291 291 290 291 293 292 290 289 288 287 288
298 296 310 312 314 311 302 294 297 296 290 291 297 295 298 296 295 295 294 296 294 297 294 293 292 291 291 292 291 292 293 290 291 288 288 289 290 294 292 297 298 297 298 292 295 293 295 289 287 284 284 283 286 286 287 286 289 288 287 284 287 288 289 289 287 283 283 279 280 276 277 283 288 287 284 285 283 283 285 288 291 292 291 289 287 286 287 287
300 299 303 311 314 310 299 289 289 291 290 293 294 294 298 297 295 294 294 294 293 294 293 293 293 294 292 294 293 292 295 289 293 292 290 291 288 294 294 297 298 295 295 292 293 296 290 287 289 284 280 281 281 284 285 286 288 283 285 289 291 291 289 285 282 280 281 284 284 280 280 285 288 284 283 283 286 287 287 286 286 290 291 290 287 286 287 287
299 300 301 304 310 307 295 297 293 290 289 288 289 289 292 294 297 297 296 294 297 293 294 293 295 294 292 295 294 296 296 294 289 294 294 290 291 292 296 297 299 296 298 297 298 300 293 289 289 284 282 279 278 279 281 282 285 286 284 287 287 289 289 285 285 284 282 286 284 284 285 288 286 284 286 287 285 286 285 285 283 286 289 290 287 286 287 287
293 287 297 299 304 303 302 303 299 294 290 289 287 289 292 291 296 298 298 296 297 297 296 296 296 296 293 294 292 293 293 296 293 288 292 289 289 291 294 297 298 297 297 298 297 298 289 291 292 290 288 286 287 286 286 287 284 284 285 287 288 289 290 290 289 285 284 283 282 288 289 289 290 287 286 287 284 286 289 289 289 288 287 286 286 288 288 288
297 291 293 289 299 299 297 300 297 295 290 293 286 290 289 291 293 295 300 293 297 296 295 295 293 291 292 293 292 292 294 293 295 290 290 292 291 292 294 296 298 298 297 296 297 292 286 288 291 292 291 292 292 288 287 291 287 288 286 285 289 288 288 287 286 286 286 283 284 290 287 288 291 292 291 289 286 285 286 288 287 286 287 289 289 286 289 286
288 291 298 299 293 289 292 293 297 295 294 294 290 294 289 289 291 289 297 298 299 297 292 294 294 294 294 292 293 288 290 291 291 290 291 289 290 291 292 294 296 297 296 296 297 295 290 289 292 291 290 293 293 292 289 290 290 289 288 288 287 288 287 286 287 290 287 287 285 290 288 289 292 294 295 295 292 294 294 291 291 292 289 287 286 286 286 287
296 295 295 296 290 292 295 295 297 295 294 293 292 293 290 290 289 292 293 294 296 294 295 289 291 293 294 295 293 290 291 287 288 292 290 286 288 290 289 292 294 292 296 293 295 289 292 289 291 292 290 291 292 291 289 289 288 287 287 288 289 288 288 288 289 290 289 289 291 292 290 289 294 291 292 294 295 296 296 293 289 288 288 288 286 287 287 287
290 292 289 294 293 293 290 293 295 293 290 294 289 291 292 291 289 292 294 294 290 293 298 292 293 294 294 294 293 291 292 293 293 289 289 292 289 291 292 293 289 289 292 292 294 291 291 289 291 288 288 289 291 290 287 288 288 287 287 288 289 289 289 289 289 289 289 289 291 291 289 289 295 288 292 292 292 292 292 290 290 291 289 288 288 288 288 287
296 296 297 291 287 290 292 288 291 293 290 292 290 291 292 292 290 293 292 297 295 292 295 293 295 294 295 294 294 293 296 295 295 295 292 295 291 294 293 291 294 290 291 289 288 288 288 286 286 287 287 287 290 289 287 287 287 287 288 288 287 287 285 286 286 290 288 287 289 288 287 288 293 292 297 290 290 291 292 293 292 291 289 288 288 288 288 288
297 297 297 294 286 291 289 290 291 292 288 292 292 292 292 292 294 294 290 295 297 298 297 297 297 296 294 294 293 294 297 298 298 299 298 297 298 296 298 295 296 293 289 288 288 289 287 286 285 286 286 286 289 287 286 287 284 283 286 289 291 289 289 289 290 291 291 292 288 287 288 294 296 290 291 288 290 291 292 293 293 291 289 288 289 290 290 290
Wind_Speed
1 1 2 3 4 4 4 4 6 7 7 7 8 8 8 8 9 9 9 9 10 11 11 11 11 12 12 12 13 13 13 2 2 1 2 2 1 5 7 6 7 7 4 3 6 8 3 5 8 9 5 4 2 1 2 2 1 2 2 5 4 1 1 3 4 8 1 8 5 3 3 6 2 0 0 2 8 4 2 5 3 4 4 0 1 1 0 0
1 1 2 3 3 4 5 5 5 6 7 7 8 8 8 9 10 10 10 11 11 11 12 11 12 12 12 12 12 12 7 2 2 3 0 1 3 5 6 5 5 5 4 2 6 4 3 5 5 6 4 1 2 0 1 1 2 4 2 4 4 4 1 2 2 4 4 4 6 4 2 6 4 5 1 2 0 2 2 2 3 2 2 3 3 3 3 4
0 1 1 2 3 4 4 5 5 5 6 7 8 8 9 10 10 11 12 12 12 12 12 12 12 12 12 12 11 9 4 1 1 1 1 2 4 5 5 4 3 3 3 1 0 1 0 2 3 2 3 1 5 1 3 2 1 0 4 3 1 6 1 1 2 3 3 6 5 4 1 4 1 2 1 2 5 1 6 4 1 1 3 4 1 2 3 5
1 0 1 2 2 3 4 5 5 5 6 7 8 8 9 10 11 12 12 12 12 13 13 13 13 12 12 11 10 6 0 2 0 1 1 4 5 6 6 4 2 2 2 1 2 0 1 1 2 2 1 4 3 2 3 2 3 1 4 2 3 5 3 1 1 1 3 5 5 4 0 4 1 3 2 4 6 3 5 6 9 11 10 8 5 3 4 6
2 1 1 1 2 3 4 5 5 5 5 6 7 8 9 10 11 12 12 13 13 13 13 14 14 13 12 11 10 1 2 3 2 0 1 3 4 6 6 5 3 0 0 2 1 1 3 3 1 3 3 0 2 2 1 2 1 3 1 2 4 2 2 2 1 1 3 2 6 2 6 4 0 1 2 7 5 6 8 8 8 6 11 12 10 6 4 5
3 2 1 0 2 3 3 4 5 6 6 6 7 8 9 10 10 12 13 13 14 14 14 14 14 13 12 12 0 0 1 0 1 0 2 5 5 6 6 5 4 0 0 2 2 2 5 4 3 2 2 2 1 2 1 0 1 1 1 0 2 3 3 2 1 1 4 2 5 4 3 2 1 1 2 5 6 3 3 3 7 6 10 7 6 6 6 6
3 3 1 2 2 2 2 3 5 6 6 6 7 7 8 10 11 11 12 13 14 14 15 14 13 13 14 5 0 3 2 2 1 3 3 4 5 5 7 6 3 2 3 4 6 3 2 3 3 0 2 3 0 1 1 2 4 6 2 0 1 1 5 5 2 4 3 9 3 2 1 2 2 3 0 2 2 2 1 1 6 8 8 8 9 6 7 6
5 4 3 3 2 2 3 4 4 5 6 6 6 7 8 10 10 11 12 13 13 14 14 14 14 13 11 1 1 1 1 1 2 3 4 4 6 6 6 1 4 1 5 3 1 2 1 4 2 1 4 3 1 1 1 2 5 2 1 0 1 0 1 3 4 2 3 2 1 4 3 4 5 2 1 4 3 2 2 5 8 9 8 6 7 7 6 5
5 5 3 3 2 3 2 3 4 4 5 6 6 7 8 9 11 11 11 12 13 14 14 14 14 13 5 1 3 1 2 1 4 3 2 5 6 7 6 1 4 3 1 3 2 2 2 0 1 2 2 1 0 3 2 1 2 0 0 0 1 0 0 1 2 3 4 2 2 2 4 4 5 4 3 7 4 4 4 6 6 8 8 7 7 7 7 7
6 5 4 3 2 3 4 3 3 4 5 6 6 7 8 9 11 12 12 12 13 13 14 14 14 13 2 2 3 1 1 2 4 1 1 3 6 3 7 1 3 4 2 4 4 5 2 1 1 0 4 2 1 1 1 2 1 2 1 1 1 0 2 1 5 3 3 1 4 3 2 1 3 4 8 1 4 4 6 6 4 7 8 6 6 6 6 8
7 7 5 3 3 2 3 4 4 5 6 6 6 7 8 10 11 12 12 12 12 13 13 13 12 9 1 1 1 5 1 2 2 2 2 4 5 6 1 5 1 2 4 4 4 0 1 2 1 1 2 1 1 2 1 0 1 2 1 0 1 5 2 2 1 1 2 1 4 5 3 2 2 1 8 3 4 5 10 6 5 5 6 6 6 6 5 5
8 8 6 5 4 3 2 3 5 6 6 7 7 8 9 10 11 12 13 13 12 12 12 11 11 2 1 4 2 2 2 3 4 1 2 0 2 4 4 1 2 2 2 1 0 0 1 0 3 1 1 0 1 0 0 0 1 0 1 2 5 6 3 2 5 4 4 2 4 3 1 3 1 7 4 2 6 5 6 7 5 5 5 5 5 5 5 6
10 9 8 6 4 3 3 3 4 6 6 7 7 9 10 10 11 12 13 13 11 12 11 10 8 2 2 0 4 5 3 2 2 3 1 2 1 0 0 1 1 1 2 2 1 0 1 1 2 4 0 3 2 1 1 2 0 1 3 0 5 6 5 4 0 1 6 1 5 3 3 7 9 10 1 3 8 4 5 5 5 5 5 5 5 6 5 4
9 9 8 6 5 4 5 5 5 5 7 8 8 9 10 11 12 12 13 14 14 12 9 11 2 1 1 3 2 3 3 2 1 3 0 1 3 2 3 3 3 3 2 3 0 0 0 1 5 4 1 2 0 0 2 2 3 1 1 3 0 3 3 3 1 4 7 1 5 2 3 7 8 8 4 6 7 11 9 7 6 6 6 6 6 6 7 6
10 9 8 7 5 5 4 5 4 5 7 9 9 9 11 12 12 13 13 13 12 10 10 5 1 1 1 3 2 5 4 0 2 2 1 0 2 2 1 2 4 4 1 3 0 0 1 3 3 2 0 0 1 1 2 2 3 1 2 3 4 2 5 8 1 7 7 1 1 3 3 9 8 9 2 6 5 6 9 8 8 8 7 7 6 7 7 7
10 9 8 8 6 5 3 3 3 4 6 8 9 8 9 11 12 13 14 11 14 9 3 0 2 2 2 2 0 3 1 1 2 1 1 2 1 1 2 2 1 4 2 2 2 2 5 6 5 1 0 2 5 6 4 2 2 5 1 3 0 1 5 7 1 1 2 4 1 5 7 3 5 3 2 4 6 6 6 7 8 10 10 9 9 8 6 6
10 9 9 8 7 6 4 3 4 4 6 7 8 8 9 10 11 12 15 13 4 1 1 0 1 1 1 1 1 0 3 4 2 1 1 0 1 4 4 2 1 1 3 3 7 3 5 4 3 1 4 3 3 5 2 3 5 2 1 3 4 2 1 2 4 1 1 4 4 1 3 8 4 2 2 3 6 5 7 9 10 10 9 9 6 7 8 8
11 11 9 8 7 5 5 4 3 5 6 7 7 9 8 11 10 11 6 2 2 2 1 1 1 1 5 2 2 5 1 2 1 2 0 1 3 3 3 1 1 4 2 2 4 2 2 1 4 4 2 2 0 2 3 4 4 1 1 1 4 1 3 4 1 1 4 1 3 1 5 13 12 8 4 6 5 7 11 12 12 11 10 8 8 8 9 9
12 11 10 10 7 6 5 5 4 5 6 7 9 11 11 8 1 2 2 2 2 1 1 2 3 4 3 6 1 3 2 3 2 3 3 2 0 2 3 3 4 4 1 2 1 1 2 3 5 3 3 1 5 8 8 8 5 3 7 5 2 2 2 2 5 3 9 4 5 6 8 12 12 11 8 6 7 10 14 9 5 7 7 7 9 10 10 11
12 12 12 11 8 7 6 5 4 4 3 4 4 3 2 2 2 1 2 1 3 6 2 4 5 0 1 2 4 1 0 3 5 2 1 1 2 2 2 2 3 6 4 4 0 1 1 3 5 6 9 10 7 9 9 4 5 3 3 2 3 3 5 3 3 4 3 1 7 9 10 10 10 8 10 5 4 7 10 10 11 10 9 10 11 12 13 12
14 13 12 11 10 7 6 6 4 3 2 2 3 2 3 5 5 4 2 6 5 2 2 2 6 3 1 3 3 6 5 1 1 1 3 1 1 7 2 2 2 1 1 3 5 1 4 3 8 9 10 9 10 8 4 1 1 2 1 2 6 3 5 5 1 1 1 4 3 5 6 11 13 11 11 3 6 10 14 15 14 14 12 11 13 14 14 9
14 13 12 12 11 9 8 6 4 1 2 0 1 3 1 1 0 0 1 3 4 12 8 4 3 4 1 3 3 3 5 3 0 1 2 2 4 7 2 4 4 8 1 3 3 2 2 8 11 12 3 1 1 2 2 5 5 1 3 3 2 7 4 8 3 2 1 2 8 6 6 11 11 10 9 7 10 9 12 15 17 15 13 13 13 14 10 6
14 14 14 13 12 10 9 6 3 3 1 0 1 2 2 1 3 1 1 1 4 2 6 6 4 8 4 3 1 1 2 4 7 5 5 2 3 4 6 4 4 3 3 5 8 3 1 6 16 8 4 3 2 1 3 2 1 4 1 1 7 3 0 5 2 1 0 3 3 1 5 10 9 7 13 12 11 9 9 12 13 9 13 15 17 15 14 15
15 15 14 14 13 12 9 7 5 4 1 2 2 5 2 2 4 4 2 2 3 3 5 7 10 4 8 5 5 7 6 4 5 8 3 5 9 3 5 6 5 4 8 9 9 11 10 3 2 6 7 7 5 4 4 3 5 3 5 5 4 4 5 7 5 2 2 3 0 5 9 11 9 12 10 10 3 6 13 8 9 12 13 11 7 8 14 17
16 16 15 15 13 12 9 6 3 3 3 2 5 9 8 5 2 3 2 3 2 4 2 1 4 3 5 3 3 8 3 0 5 4 7 9 6 3 4 2 5 6 7 9 4 3 7 7 3 6 4 5 5 4 6 7 5 4 5 10 9 5 6 4 1 3 5 4 1 1 6 6 5 6 10 9 4 6 6 6 13 15 12 9 11 15 10 7
17 17 17 16 14 12 10 3 3 4 4 4 4 3 7 5 3 1 3 2 6 3 2 6 4 6 6 3 5 4 4 5 3 3 9 7 3 5 2 1 3 8 5 5 7 4 7 4 4 4 5 5 5 5 4 8 7 3 6 8 7 6 4 1 1 2 2 3 1 1 5 11 1 3 4 6 4 10 9 6 11 10 12 9 13 10 10 12
17 18 18 17 17 15 7 5 3 7 2 8 5 5 2 4 2 2 1 4 6 5 8 2 3 2 0 5 9 5 3 7 0 4 5 1 6 0 6 5 1 1 3 3 2 6 3 5 6 2 4 5 4 5 6 10 7 5 2 4 4 3 3 4 3 5 6 1 5 1 2 5 15 5 8 10 10 14 12 13 15 13 10 11 10 9 10 12
20 20 20 20 19 18 2 5 9 7 6 1 1 6 5 3 3 0 3 1 6 3 2 2 2 2 2 5 13 11 2 4 5 4 0 2 1 1 2 8 11 10 5 4 9 2 7 5 5 6 5 5 7 7 3 9 7 4 1 6 4 4 3 3 3 3 0 2 8 1 0 4 7 6 3 0 5 11 14 15 14 14 11 10 10 9 11 13
21 20 21 21 21 20 3 6 7 9 6 2 2 6 6 3 2 5 5 4 2 2 3 4 4 2 3 4 6 2 2 4 2 0 1 2 3 2 4 5 4 6 4 8 11 1 1 6 9 11 9 8 6 2 6 11 6 2 5 6 7 6 5 3 2 2 2 1 9 4 4 6 15 5 5 1 2 11 12 12 12 12 10 8 9 8 8 7
21 22 22 23 17 13 6 2 6 5 2 2 3 6 7 5 3 2 3 8 1 3 1 1 3 7 5 13 6 1 3 1 2 1 1 4 1 2 1 3 4 3 5 3 1 5 1 3 3 3 7 5 5 2 2 3 1 6 5 7 6 8 3 3 6 2 2 5 10 7 9 7 11 3 8 5 8 9 8 6 6 6 6 5 6 8 9 10
20 20 21 23 15 11 8 8 13 5 4 4 5 6 5 4 4 4 7 6 3 1 2 2 3 4 12 14 8 1 3 1 1 5 3 0 1 3 1 4 3 5 2 3 3 5 1 2 1 1 3 3 4 4 4 2 3 5 2 3 4 3 7 4 4 5 1 9 3 8 8 9 10 5 6 8 3 4 6 7 7 7 6 6 5 6 8 9
17 20 22 18 8 10 16 14 12 9 6 3 5 8 8 5 4 8 6 3 2 6 10 5 2 6 14 11 11 13 11 1 4 6 11 7 8 10 10 10 7 4 4 8 8 2 3 3 2 3 4 9 3 6 3 4 2 5 6 7 4 4 4 3 3 2 6 9 1 1 4 2 17 11 5 6 10 9 9 9 8 6 6 4 5 7 8 7
17 20 24 19 11 11 10 3 11 11 8 5 6 6 8 6 11 9 8 6 5 5 4 3 8 10 10 7 6 5 3 10 2 4 5 0 8 9 4 5 5 5 7 4 5 2 6 2 2 2 2 4 8 9 2 1 3 6 8 7 6 1 1 4 5 2 6 6 4 2 1 8 2 6 15 20 19 16 9 5 6 6 9 9 6 7 7 8
12 19 14 16 15 13 8 8 9 12 11 5 7 3 3 10 10 12 18 13 5 2 5 3 5 3 15 12 6 11 5 2 8 5 6 6 7 9 7 6 4 2 6 2 9 9 3 5 7 7 5 5 10 12 13 6 10 9 3 11 9 9 6 5 5 5 6 5 3 4 1 7 4 4 1 10 9 7 6 8 5 6 8 6 2 4 5 6
10 13 14 11 12 10 9 10 12 12 11 10 8 9 15 12 8 13 13 11 1 1 2 2 8 8 5 2 1 6 3 3 4 5 5 8 9 7 9 11 9 4 2 5 4 3 10 6 5 9 1 8 11 2 7 6 3 1 2 6 5 9 7 8 5 4 2 2 3 1 7 4 6 2 5 4 5 5 5 8 5 5 2 0 2 6 9 9
7 5 11 7 12 9 8 9 15 17 13 12 12 11 14 12 14 12 7 6 1 5 4 6 4 5 6 5 2 10 2 3 5 4 3 5 1 8 8 5 13 17 10 11 5 4 3 5 1 2 4 7 6 4 2 6 8 4 5 7 7 2 4 2 2 0 1 2 12 3 9 7 8 10 12 12 7 8 6 9 6 6 3 2 6 6 7 8
5 2 7 9 12 11 12 12 13 14 11 14 15 15 15 11 11 3 3 8 8 13 6 9 6 8 6 8 5 6 5 5 4 6 6 3 5 8 5 7 4 11 16 8 1 3 8 5 1 3 4 1 0 1 3 4 5 7 3 8 2 2 4 4 5 2 1 5 7 3 10 6 1 12 3 2 4 11 10 12 6 6 5 6 9 7 8 9
3 3 5 11 12 12 12 14 16 13 12 13 15 16 10 15 11 10 1 4 5 8 6 10 3 10 6 10 9 8 4 8 7 5 4 7 6 7 10 3 8 14 18 4 4 3 4 2 1 1 1 2 2 4 3 1 2 7 6 4 7 4 2 1 3 4 1 6 6 5 5 10 10 11 2 1 4 8 13 9 4 10 9 12 10 7 5 5
4 4 6 11 11 16 14 14 15 15 12 10 10 9 8 17 14 13 7 4 1 8 11 9 7 5 7 9 4 5 10 10 10 9 7 4 7 7 17 11 7 15 14 10 3 2 2 5 2 1 3 1 0 4 8 4 1 2 3 3 1 3 2 5 7 3 5 5 2 7 5 11 9 6 9 10 11 11 8 4 8 13 13 12 11 7 8 9
5 4 8 5 16 17 15 15 13 11 10 17 14 13 8 16 15 13 1 0 3 7 8 7 4 4 6 7 12 9 8 7 13 10 8 4 10 2 10 12 6 6 13 15 9 4 3 1 5 1 2 2 4 5 9 13 10 2 2 4 1 0 1 3 0 4 4 3 5 6 11 5 6 8 11 12 12 11 9 9 9 10 11 12 10 8 9 10
4 5 3 7 18 16 15 11 13 16 11 6 10 12 5 6 4 9 11 6 2 2 1 1 7 10 7 7 6 7 8 9 8 8 8 5 10 5 7 10 8 7 5 6 9 4 3 2 7 3 1 6 7 3 5 9 11 14 16 15 16 10 5 3 8 2 1 2 7 2 17 4 3 3 9 8 10 8 8 9 9 9 12 11 8 9 9 10
6 8 6 10 15 21 14 12 9 7 5 12 16 15 8 9 2 7 9 12 12 7 1 1 3 5 6 10 10 8 6 7 8 8 6 12 10 7 3 13 12 16 15 10 14 14 7 4 6 6 7 10 5 1 2 3 0 1 3 3 5 6 5 4 6 7 0 7 2 3 3 16 6 7 8 7 6 9 8 8 8 9 10 7 6 6 6 8
6 11 2 12 18 22 13 14 12 11 7 9 2 4 3 2 6 2 10 12 11 10 4 5 7 4 4 4 5 8 12 6 12 11 5 9 7 13 5 16 11 14 15 5 6 0 6 3 3 1 1 3 2 2 2 2 4 1 1 2 5 9 10 12 8 5 7 2 3 2 5 9 2 0 3 3 3 4 3 3 9 9 8 6 5 5 6 7
5 8 3 5 17 15 15 14 12 9 7 7 10 7 8 2 5 5 8 14 12 12 17 9 5 6 3 4 5 10 12 6 9 15 11 6 6 8 6 12 17 11 12 9 12 10 6 4 7 3 1 1 4 3 2 2 1 3 6 10 12 9 7 1 3 2 2 13 9 7 16 11 3 3 3 1 1 4 5 5 6 8 9 8 5 4 6 7
5 3 5 4 11 16 14 10 11 11 14 13 10 12 9 8 5 13 11 9 10 3 6 12 12 5 4 2 4 6 12 17 5 14 10 4 6 3 10 14 17 13 11 8 13 14 8 7 9 8 12 12 9 11 13 10 11 4 2 4 5 10 12 5 6 5 7 11 12 9 16 5 1 2 3 1 2 4 5 7 5 7 7 7 5 5 6 9
5 6 3 6 8 8 13 11 9 12 15 14 12 14 14 11 4 7 9 9 11 10 12 6 5 4 3 4 4 5 8 13 15 2 11 5 4 1 7 12 15 10 13 12 9 12 4 5 13 14 16 17 16 4 2 8 5 8 9 13 12 11 12 11 7 7 17 3 6 16 19 13 11 3 3 5 3 5 6 8 8 7 7 7 6 8 8 8
4 7 3 6 4 14 9 9 12 10 12 14 11 10 17 17 9 4 9 5 11 12 8 11 3 8 9 7 9 9 8 6 10 3 7 12 5 3 3 11 14 16 15 7 9 5 3 5 12 17 17 17 14 5 9 17 15 16 12 12 16 15 15 14 14 19 5 2 16 20 5 10 24 9 11 9 6 6 9 8 7 5 8 11 7 3 4 4
8 4 7 2 6 7 14 13 9 12 12 17 12 9 17 19 16 8 6 11 5 11 7 5 8 10 12 19 15 12 10 11 7 11 5 3 2 1 2 0 7 8 9 4 8 8 7 7 13 12 16 19 17 10 13 11 13 13 15 16 17 18 15 20 23 18 9 14 20 21 10 15 22 15 13 14 9 14 13 10 13 11 3 0 3 6 8 9
6 4 4 2 2 3 13 13 15 15 16 17 9 15 15 20 21 18 10 10 9 5 13 10 17 21 20 16 14 12 13 8 14 13 8 4 5 3 2 2 3 3 8 4 6 1 4 7 12 14 16 15 15 8 10 13 8 6 13 17 18 21 24 25 24 18 14 16 20 24 13 15 23 8 9 9 12 14 10 7 3 1 7 8 6 7 9 9
5 5 5 2 3 8 6 7 9 10 11 14 12 15 13 16 21 17 9 8 9 12 12 20 17 19 19 12 13 16 18 17 13 11 5 10 6 7 8 8 5 1 3 8 7 2 4 7 7 6 9 15 16 6 8 13 9 9 11 13 18 22 24 23 20 16 16 18 23 21 17 20 20 6 7 5 5 6 6 6 8 11 8 8 9 10 10 11
2 1 1 4 5 5 5 3 5 11 10 11 12 10 11 15 18 17 17 17 19 16 16 23 24 12 11 14 14 17 18 18 18 13 6 10 12 9 9 5 8 9 7 4 2 1 2 3 2 4 10 13 12 7 8 7 10 12 15 18 23 21 12 7 10 15 12 18 21 16 18 24 12 5 13 3 5 8 10 12 11 10 9 9 10 12 12 12
3 0 2 2 6 4 5 2 4 5 11 9 11 14 12 19 16 14 11 11 14 12 13 21 20 14 12 17 21 23 23 18 17 13 8 4 5 2 6 2 9 10 9 6 2 5 8 6 3 3 8 12 9 9 8 8 3 7 16 28 25 11 13 12 16 15 19 21 16 16 22 20 18 5 7 5 8 10 12 11 12 11 8 10 13 14 15 14
Wind_Direction
273 322 337 347 3 356 352 6 2 355 355 354 354 355 355 350 350 349 349 350 350 349 347 347 347 342 339 336 336 342 342 69 33 44 73 235 210 296 308 314 317 315 320 4 8 40 346 9 3 343 20 58 304 49 287 42 53 57 61 119 48 174 92 197 172 187 222 141 212 196 206 114 135 307 205 53 32 81 60 58 327 10 32 182 341 54 129 137
180 360 347 5 357 348 358 354 10 357 354 350 351 353 350 350 346 347 348 348 349 347 346 345 342 340 335 333 336 341 354 41 65 62 221 75 298 316 318 316 318 329 315 37 48 47 53 346 334 18 28 43 322 20 25 321 73 91 110 82 168 193 247 155 209 205 142 186 169 193 172 139 204 137 229 104 260 119 55 6 20 16 355 20 39 36 62 110
131 51 360 359 11 356 352 351 355 5 355 349 347 350 349 348 346 346 346 347 345 345 344 339 339 335 333 329 328 339 352 22 37 341 283 12 321 321 318 309 314 25 58 46 256 103 109 277 274 10 7 82 4 293 36 323 56 173 109 80 230 210 200 233 176 192 242 146 137 140 219 153 185 140 156 179 179 160 165 164 320 205 210 184 215 86 77 102
208 216 341 354 358 3 351 351 350 359 357 352 345 346 345 342 345 347 346 343 343 342 340 337 334 330 328 322 324 326 71 71 283 247 298 315 324 316 312 306 313 81 104 154 173 41 226 84 55 77 14 66 305 52 53 319 73 287 69 155 192 195 104 248 185 167 118 134 146 135 111 124 247 216 141 149 108 245 254 220 167 199 189 189 184 143 114 111
214 223 294 351 338 356 359 352 348 351 353 350 348 341 342 343 345 344 344 341 340 338 337 333 331 325 324 321 323 330 64 61 235 240 288 311 327 314 308 305 326 87 190 252 125 91 68 64 73 35 79 276 1 13 62 324 127 78 68 216 156 116 83 240 221 6 111 135 104 112 120 193 36 63 144 151 172 211 211 222 219 184 167 168 168 171 132 124
219 208 220 219 1 356 356 351 348 345 350 347 345 340 339 342 343 341 341 340 337 336 333 332 328 325 325 327 15 63 79 84 244 321 310 316 321 316 307 309 336 73 216 37 67 13 52 352 60 24 5 64 338 95 294 219 360 94 320 360 208 212 139 230 205 253 126 110 120 145 204 71 122 239 211 174 198 232 236 243 182 162 159 151 131 138 138 142
207 227 249 346 357 344 355 350 345 343 343 343 339 338 338 340 339 341 339 338 334 332 331 329 328 326 330 353 317 86 125 266 39 254 338 334 316 317 313 321 329 24 53 48 20 56 40 59 71 61 85 56 313 95 337 345 15 102 171 288 354 140 140 173 170 114 104 114 184 198 75 171 154 210 114 208 246 241 344 101 133 131 126 135 136 155 153 156
231 239 234 272 335 350 355 358 347 343 339 338 334 333 337 337 336 335 338 334 333 330 329 330 330 326 349 35 33 3 32 247 257 277 288 348 336 329 325 329 26 55 56 77 44 38 82 51 87 134 62 131 218 123 324 45 19 81 66 229 294 37 180 181 151 124 122 142 93 102 140 232 180 185 28 252 201 161 96 94 109 120 122 128 138 151 152 149
236 253 259 282 300 327 345 346 349 343 338 336 333 327 334 335 333 335 333 332 331 329 329 331 331 331 322 84 115 71 264 243 211 307 4 11 332 352 16 314 8 69 130 64 11 137 105 266 75 193 217 132 196 99 341 105 328 145 184 175 360 274 296 183 132 163 161 139 119 97 235 285 262 314 250 229 181 171 122 93 115 122 130 148 159 163 158 162
221 231 247 270 279 315 333 347 344 342 340 336 331 326 325 330 331 335 331 330 327 327 328 331 338 330 6 80 43 101 253 248 302 278 62 51 359 14 31 53 31 50 50 339 43 46 79 205 140 185 126 75 89 61 289 81 228 154 149 143 157 308 8 194 187 224 215 158 186 177 260 252 335 143 272 11 170 146 113 120 131 140 156 165 164 168 172 165
223 230 234 252 270 276 340 343 343 339 336 337 327 325 320 320 328 332 331 325 325 322 327 332 343 359 58 64 133 235 284 56 342 339 38 61 51 53 1 340 41 72 98 36 75 49 132 159 189 94 45 222 85 327 63 227 132 45 161 284 318 334 240 224 261 266 109 275 169 170 239 277 304 97 235 197 176 170 142 156 162 163 169 174 175 175 180 175
214 231 231 241 263 289 316 338 344 344 338 330 325 316 314 311 319 325 326 322 320 321 324 331 350 358 44 68 151 214 352 284 324 319 20 123 85 165 219 174 80 136 104 104 11 287 192 140 126 62 208 132 39 44 43 203 80 208 57 331 303 354 359 251 199 207 149 244 150 144 3 302 224 228 264 212 150 159 152 163 177 181 185 182 183 181 186 188
197 210 221 219 224 266 288 295 329 338 337 327 319 316 308 308 310 319 320 320 317 317 318 326 341 55 80 7 241 248 306 312 353 36 51 56 105 16 43 113 125 135 135 129 164 243 197 137 100 75 165 104 172 126 205 85 317 100 36 88 345 360 338 308 6 116 147 242 147 142 278 266 245 236 289 147 148 122 139 183 195 197 190 192 187 189 195 208
198 205 207 211 200 228 261 281 297 324 331 329 316 310 306 305 308 311 315 311 311 308 317 320 29 42 85 244 283 263 302 287 82 55 290 352 83 322 11 3 71 69 59 106 153 180 81 65 96 112 122 89 158 305 53 342 23 169 274 61 16 19 282 296 10 176 149 183 169 82 207 280 273 280 250 177 166 160 183 200 204 202 202 197 198 193 199 212
198 199 205 201 190 209 244 282 298 311 324 331 320 305 304 302 304 304 305 307 305 307 316 343 76 52 55 264 317 307 273 358 20 261 236 117 113 35 360 20 36 19 12 99 93 133 118 77 72 41 295 285 54 72 357 22 354 31 49 296 321 141 275 301 288 159 161 320 127 101 281 247 273 273 209 181 173 172 191 200 206 207 205 203 199 200 204 209
194 197 197 199 206 218 237 254 268 304 310 322 323 309 297 298 299 298 294 288 291 312 323 61 30 102 103 296 252 335 27 118 225 238 292 142 139 167 174 123 6 12 41 351 34 54 34 82 75 185 210 19 57 89 41 33 338 347 124 265 273 126 264 336 49 250 163 123 338 167 228 326 301 307 190 177 175 190 199 213 213 211 209 203 202 201 200 202
195 191 195 198 209 218 242 261 241 271 296 316 319 304 291 281 293 299 295 282 280 149 78 57 356 100 160 262 356 223 229 237 301 36 8 62 161 164 105 53 32 38 18 28 19 55 353 62 296 30 36 115 136 94 78 11 326 305 356 211 202 191 261 271 301 259 222 139 208 268 226 240 236 276 239 213 187 189 222 225 221 215 210 208 202 201 203 205
195 193 191 199 207 214 227 240 251 269 295 309 310 305 295 289 299 320 329 55 113 117 115 187 161 53 286 32 201 232 186 126 176 185 142 268 120 97 95 95 38 73 47 40 357 77 332 58 31 184 2 20 69 67 125 228 203 210 168 285 294 279 210 241 322 249 125 334 198 245 238 265 265 267 232 215 193 197 224 224 220 216 211 205 203 205 209 208
196 194 190 193 197 206 211 212 222 260 299 320 313 295 277 280 322 110 47 343 102 19 26 221 145 150 207 226 182 56 74 212 99 105 200 139 20 111 67 90 85 109 85 73 264 95 353 58 27 50 200 184 204 173 173 213 152 196 170 179 171 178 236 205 235 267 174 188 225 208 228 248 255 260 254 211 199 203 229 239 257 238 223 214 210 213 210 211
196 194 193 195 190 193 209 199 223 272 334 336 347 340 43 46 11 339 348 24 221 185 180 203 171 210 72 3 145 273 255 46 117 274 281 281 111 84 34 86 35 61 108 171 292 174 120 122 173 194 214 205 200 193 200 194 146 122 107 116 199 198 281 290 271 256 185 86 232 229 238 251 264 254 259 227 183 230 246 247 238 233 219 212 215 215 214 211
199 201 196 192 188 187 194 194 196 256 36 47 336 63 161 176 124 249 241 250 253 267 186 260 197 158 273 155 158 152 127 311 50 213 207 121 121 110 198 71 45 89 286 172 138 281 67 169 240 219 212 191 200 209 226 79 116 160 166 183 273 167 248 238 233 342 279 172 288 248 247 255 256 264 260 232 160 222 228 236 241 235 222 219 214 218 215 207
197 194 189 187 186 186 192 187 207 186 88 16 60 122 310 203 180 191 124 293 282 242 237 233 355 298 2 152 225 149 73 99 338 251 268 137 180 144 251 110 157 180 184 105 44 64 142 194 234 227 203 147 174 183 195 205 243 223 201 241 283 268 247 285 262 291 290 145 259 267 251 259 255 258 268 238 213 226 222 220 229 226 223 221 218 219 207 168
192 191 187 183 184 184 186 187 196 111 59 92 239 163 218 234 345 267 96 146 275 273 205 206 221 230 262 328 222 157 168 172 187 217 208 139 124 211 150 117 177 133 110 146 162 143 252 286 245 227 126 153 263 148 154 195 247 237 246 161 230 237 81 291 289 356 257 170 260 274 283 273 272 260 256 251 226 237 238 235 242 228 226 219 216 205 197 201
191 187 184 183 178 181 179 185 186 119 157 219 270 212 217 105 35 16 113 223 270 288 191 210 192 184 202 152 205 152 180 228 110 197 261 139 162 180 130 178 147 123 178 187 180 177 193 218 265 141 167 163 204 200 141 159 241 259 204 204 225 218 238 187 250 309 307 320 41 299 290 277 245 253 265 262 275 252 252 244 249 245 236 234 230 222 209 200
188 185 181 179 179 169 183 145 199 200 141 166 255 247 267 281 38 11 71 333 348 282 275 349 152 219 194 51 115 160 239 320 223 188 175 150 141 107 218 157 99 199 189 196 178 230 261 255 85 100 143 176 181 229 210 163 222 263 224 197 207 193 215 261 355 20 11 330 326 78 322 281 283 250 248 276 336 288 259 230 241 243 237 223 218 218 207 206
189 182 179 177 171 167 139 161 202 145 137 207 214 215 233 256 241 233 90 86 276 254 24 244 145 252 134 188 126 169 74 243 213 198 155 198 137 147 100 181 148 209 197 142 188 206 205 218 166 167 144 169 190 200 233 163 203 187 265 191 201 192 196 211 245 77 295 244 293 34 211 282 271 252 245 261 264 266 267 232 249 244 246 223 225 215 194 189
191 184 178 173 170 148 136 219 148 114 119 268 223 206 161 191 138 159 89 3 299 189 170 248 141 262 34 186 147 113 167 243 52 84 145 293 183 331 140 200 62 3 154 162 32 264 151 230 201 177 151 158 171 215 242 170 165 232 245 147 154 143 185 218 180 176 234 257 300 36 125 267 292 250 222 233 246 258 268 269 264 256 242 237 228 210 195 188
193 185 178 173 172 168 176 128 130 162 205 223 198 174 157 154 138 165 83 360 272 112 136 227 213 351 88 187 157 166 220 156 115 231 24 274 64 328 153 195 179 180 186 121 220 258 159 191 172 189 191 182 202 206 192 161 155 220 205 123 144 171 167 113 133 162 206 29 281 319 16 308 242 273 307 38 257 266 260 257 260 261 251 235 229 211 201 192
196 187 179 176 174 179 162 150 165 189 210 131 81 124 130 145 130 96 127 194 246 92 273 96 276 69 40 107 175 75 140 354 161 246 314 37 36 143 206 212 181 178 204 176 222 230 311 174 200 177 169 212 218 244 169 161 198 267 127 84 77 73 67 93 95 89 328 61 260 188 185 223 275 236 259 329 227 261 260 255 253 255 257 240 226 217 201 188
203 192 180 174 170 182 193 121 211 210 101 74 120 127 116 103 68 102 68 237 96 247 160 207 158 192 149 154 195 35 134 351 51 102 53 155 212 24 345 154 123 144 218 8 49 203 262 285 181 120 199 197 127 64 150 220 166 130 81 66 18 41 29 19 63 84 30 268 247 204 208 179 283 192 192 168 218 209 240 277 271 273 275 256 226 200 190 187
206 191 185 173 184 181 149 202 216 170 109 109 151 127 112 39 133 146 207 222 24 194 43 161 177 101 152 154 181 295 78 53 108 158 127 84 20 44 114 36 49 63 26 337 300 331 357 359 143 262 104 104 106 82 21 87 113 124 93 116 54 338 11 31 342 37 182 266 243 228 205 173 222 285 274 238 265 236 205 227 252 266 262 249 219 204 194 186
208 194 184 182 185 143 184 203 189 146 163 143 153 150 148 149 334 192 219 62 284 213 166 180 239 163 179 178 159 175 170 59 183 173 162 176 164 167 204 175 155 136 261 212 252 16 286 206 251 333 202 130 115 89 4 26 18 84 89 79 123 258 28 300 25 289 205 235 247 21 122 10 237 240 268 285 263 261 228 225 229 238 269 255 238 212 193 181
222 200 188 190 168 198 209 71 137 159 155 148 160 177 167 151 203 199 243 161 247 136 255 133 168 169 168 156 207 165 56 175 181 189 129 172 162 221 233 190 206 133 205 209 184 85 267 280 328 260 349 231 146 161 173 73 210 123 146 149 132 235 240 274 265 258 302 295 277 14 78 253 291 274 224 243 251 246 259 240 244 252 264 268 233 207 185 184
246 208 194 194 193 196 169 148 144 147 135 130 141 152 19 189 210 186 209 206 207 2 102 121 127 117 161 174 202 153 178 250 157 199 173 165 170 200 236 246 192 243 87 135 174 184 223 309 243 140 237 180 187 199 184 159 158 201 96 152 185 150 153 235 186 213 224 225 290 277 113 236 129 242 253 236 260 300 295 285 268 244 255 276 272 173 177 183
287 224 204 199 204 201 172 156 147 138 139 151 135 184 180 201 202 200 217 215 203 71 36 127 124 138 212 337 283 194 127 197 182 130 179 151 200 198 185 208 217 135 164 134 252 81 214 229 263 205 317 160 187 201 108 92 78 236 162 63 95 220 144 235 192 181 253 317 325 211 212 195 192 241 296 247 280 298 304 289 306 288 335 25 159 184 192 193
301 249 209 196 202 185 168 158 154 155 158 150 152 184 208 188 202 201 228 163 179 133 139 75 79 132 192 190 337 192 259 119 202 128 233 218 243 196 209 198 193 190 160 195 154 176 52 264 285 4 33 175 186 124 177 152 195 211 106 196 210 163 151 282 10 26 97 39 253 149 284 273 302 277 246 249 248 274 288 279 288 287 295 279 227 213 206 200
264 235 221 202 209 169 167 165 163 163 164 163 170 192 198 226 227 196 248 185 181 130 144 140 225 153 172 205 195 194 216 79 179 145 218 140 286 212 206 233 178 195 211 141 288 199 151 231 302 111 202 316 152 143 107 24 144 96 184 228 90 94 112 139 229 338 70 219 270 171 235 280 50 281 342 47 212 255 253 253 258 288 277 260 239 218 208 202
266 235 247 220 196 165 170 170 167 172 170 178 192 193 196 222 226 217 195 120 84 147 147 199 246 153 196 171 209 176 212 178 190 179 208 182 243 189 183 202 202 199 206 205 176 241 129 293 252 310 131 304 352 86 24 13 39 152 194 200 133 244 238 290 93 267 226 257 272 270 231 253 192 245 36 222 200 245 248 249 249 261 253 247 248 229 213 201
246 260 251 215 173 164 170 169 177 175 174 182 194 205 217 229 220 214 188 113 169 156 198 207 174 220 159 191 167 162 164 187 172 195 157 220 220 189 187 174 216 203 197 185 196 222 139 182 283 326 129 258 44 131 192 202 9 45 76 118 85 102 173 134 201 183 114 259 25 280 105 255 187 221 198 222 206 227 246 252 230 242 241 238 240 219 202 201
230 238 246 166 153 164 162 168 187 203 174 191 184 218 193 214 221 225 276 8 249 183 211 195 200 132 185 203 159 162 222 193 169 195 196 206 203 277 187 190 173 181 180 185 204 129 204 167 242 271 312 100 186 187 191 168 176 89 117 195 189 160 258 117 334 145 172 195 199 287 290 259 247 204 185 206 206 215 207 225 235 243 248 239 233 213 207 203
210 252 270 147 158 153 154 180 204 198 186 221 218 211 159 211 209 225 215 252 280 301 197 226 168 197 171 161 223 181 175 177 190 188 198 234 188 230 200 178 140 154 141 175 210 201 183 175 191 148 177 225 247 251 224 198 188 181 176 189 185 157 151 179 258 47 142 160 245 165 262 247 264 167 194 200 212 208 212 209 236 245 246 246 228 216 203 201
223 228 239 166 152 148 158 206 204 192 183 186 198 193 210 211 23 208 175 206 227 247 236 318 274 214 172 196 174 193 149 183 193 197 228 210 212 213 238 171 168 149 147 176 200 206 173 148 103 186 209 203 216 265 265 230 113 200 162 234 190 187 129 140 219 235 277 247 121 196 334 271 202 184 192 197 199 205 211 193 233 248 250 250 236 219 208 201
217 242 1 166 156 160 173 204 194 196 200 223 229 211 324 216 209 175 167 184 204 222 257 232 207 199 240 168 185 180 173 198 178 207 202 221 240 203 203 181 156 166 165 190 173 312 95 119 137 291 329 325 307 315 24 57 111 12 312 140 128 202 190 203 208 180 192 246 217 269 253 268 322 43 258 258 279 285 323 200 220 250 272 261 231 206 198 195
252 240 243 204 173 171 179 203 199 197 210 220 212 217 214 264 196 201 194 180 190 188 213 221 210 204 231 175 150 190 181 215 208 204 225 206 251 200 180 179 158 177 170 198 169 187 155 245 160 129 29 335 348 337 345 336 63 201 190 203 201 199 202 164 90 108 250 225 187 160 245 252 261 344 332 338 323 277 265 256 226 241 256 257 250 209 197 195
294 263 215 200 193 184 211 185 206 186 199 206 177 210 216 233 203 205 200 197 198 228 194 228 215 136 207 142 189 195 189 203 212 214 222 200 229 222 192 181 185 181 203 185 170 165 178 156 157 185 207 209 211 201 207 198 202 202 276 193 194 191 194 166 244 206 229 250 146 217 252 230 185 317 299 284 322 288 268 254 268 232 253 266 234 210 203 193
212 260 187 178 221 223 212 212 210 189 198 200 199 213 211 218 190 206 193 219 197 199 212 231 208 226 224 208 211 190 216 221 219 155 198 221 243 271 198 187 192 195 203 174 182 153 173 179 185 195 206 220 225 209 89 101 81 195 213 182 208 208 205 202 223 214 226 217 163 227 234 267 265 195 289 263 242 231 249 256 246 254 260 262 241 217 204 206
312 238 182 216 144 238 245 201 201 183 210 183 204 171 207 216 210 209 182 210 209 207 211 216 154 172 215 220 231 240 211 220 243 231 204 210 196 201 257 190 200 206 186 167 171 103 85 178 210 209 214 225 232 186 181 157 182 206 187 198 205 199 199 197 205 229 118 75 263 248 171 248 262 233 243 241 247 255 250 250 263 269 250 233 230 231 204 191
227 242 252 263 242 193 222 232 202 213 205 185 203 166 204 203 206 207 172 225 203 207 208 222 215 202 204 205 203 223 221 228 204 229 222 228 149 305 100 243 200 192 164 189 180 173 155 193 215 209 227 231 232 207 163 180 188 193 198 198 200 206 200 207 221 222 125 215 240 259 148 232 256 244 229 239 196 229 227 223 225 227 254 201 177 197 207 209
228 314 278 51 264 254 218 224 197 199 209 195 205 205 200 202 207 204 189 189 211 196 203 218 210 212 213 206 198 212 210 209 230 223 216 163 183 132 168 23 251 66 178 158 182 207 161 220 205 199 222 235 237 216 157 185 209 205 204 205 203 202 208 211 220 214 204 228 241 258 240 233 254 252 205 218 208 225 236 225 224 202 221 213 208 219 219 212
200 201 264 258 244 274 304 244 207 187 219 195 203 208 205 201 209 204 212 183 192 211 195 221 222 212 212 201 197 213 208 212 215 214 186 169 210 188 201 188 154 346 161 179 174 264 155 223 170 177 213 236 238 208 150 196 194 211 224 219 218 216 214 211 215 220 218 238 245 250 266 267 255 128 238 205 206 235 262 259 229 229 222 208 214 223 226 219
278 235 86 324 305 263 264 232 218 189 193 200 215 208 217 208 213 198 207 201 197 193 194 212 220 209 211 209 210 223 222 214 217 210 180 172 192 207 172 243 169 159 181 143 127 302 82 256 12 117 200 240 238 196 191 199 209 221 234 229 227 222 222 211 216 221 199 224 236 247 254 251 259 150 254 178 188 207 225 234 236 237 224 214 216 226 226 226
245 232 164 226 256 217 261 281 226 194 221 190 196 207 209 215 216 190 218 222 223 218 201 212 215 200 207 206 213 218 219 214 222 229 231 243 262 222 222 195 174 161 168 178 25 169 172 148 141 170 201 238 252 137 176 200 246 266 248 237 229 212 208 211 224 216 208 211 221 230 240 247 251 193 233 231 207 220 230 233 237 240 229 213 217 222 226 227